Weather Roundup
Issued by NWS Springfield, MO

Home | Current Version | Previous Version | Text Only | Print | Product List | Glossary On
Versions: 1 2 3 4 5 6 7 8 9 10 11 12 13 14 15 16 17 18 19 20 21 22 23 24 25 26 27 28 29 30 31 32 33 34 35 36 37 38 39 40 41 42 43 44 45 46 47 48 49 50
000
NZUS99 KSGF 240757
HRRSGF

HOURLY WEATHER
NATIONAL WEATHER SERVICE SPRINGFIELD MO
300 AM CDT TUE MAY 24 2016

......SGF CWA......

CITY           SKY/WX    TMP DP  RH WIND       PRES   REMARKS
SPRINGFIELD    CLOUDY    64  60  87 S8        29.92F
JOPLIN         MOCLDY    65  62  90 S6        29.89F
WEST PLAINS    CLOUDY    65  56  72 CALM      29.98F
ROLLA          CLOUDY    65  57  75 S5        29.95S

......SURROUNDING SGF CWA......

CITY           SKY/WX    TMP DP  RH WIND       PRES   REMARKS
CHANUTE        CLOUDY    65  62  90 SE8       29.85F
PARSONS        CLOUDY    67  64  90 SE6       29.86F
COFFEYVILLE    MOCLDY    66  63  90 SE6       29.85F
EMPORIA        CLOUDY    64  62  93 SE6       29.86R
HARRISON AR    CLOUDY    64  62  93 S5        29.96F

......KANSAS AND MISSOURI......

CITY           SKY/WX    TMP DP  RH WIND       PRES   REMARKS
KANSAS CTY INT PTCLDY    62  60  93 S10       29.88S
SEDALIA        CLEAR     60  58  92 S6        29.93F
ST JOSEPH      PTCLDY    64  61  90 S9        29.87F
ST LOUIS       CLOUDY    70  54  56 S6        29.97S
WICHITA        CLOUDY    70  66  87 S9        29.79F
TOPEKA         PTCLDY    63  60  90 E5        29.86F
OLATHE         MOCLDY    61  60  97 S8        29.88F

......TENNESSEE......

CITY           SKY/WX    TMP DP  RH WIND       PRES   REMARKS
MEMPHIS        NOT AVBL
NASHVILLE      CLEAR     57  52  83 S3        30.03R

......ARKANSAS.......

CITY           SKY/WX    TMP DP  RH WIND       PRES   REMARKS
FAYETTEVILLE   PTCLDY    61  61 100 CALM      29.92F
FT SMITH       CLOUDY    68  64  87 E5        29.91S
LITTLE ROCK    CLEAR     66  60  81 CALM      29.96R

......OKLAHOMA.......

CITY           SKY/WX    TMP DP  RH WIND       PRES   REMARKS
TULSA          CLOUDY    69  66  90 SE8       29.83F
PONCA CITY     CLOUDY    69  65  86 SE13      29.78F
MCALESTER      CLOUDY    72  66  81 S6        29.88F
OKLAHOMA CITY  CLOUDY    71  70  96 S12       29.84F

......IOWA............

CITY           SKY/WX    TMP DP  RH WIND       PRES   REMARKS
DES MOINES     NOT AVBL
QUAD CITIES    PTCLDY    61  49  64 CALM      29.91S

......ILLINOIS........

CITY           SKY/WX    TMP DP  RH WIND       PRES   REMARKS
QUINCY         NOT AVBL
CHICAGO        MOCLDY    67  44  43 S12       29.95R



USA.gov is the U.S. government's official web portal to all federal, state and local government web resources and services.